When you browse on this site, cookies collect data to enhance your experience and personalize the content and advertising you see.
Visit our Privacy Policy to learn more. By continuing to use the site, you agree to this use of cookies and data.

Hourly Weather Myshkino

Today, 14 July, Tuesday

Time Temperature Precipitation Wind Pressure Humidity
00:00 +11°C° 0 mm 3 mps 743 mmHg 95%
01:00 +11°C° 0 mm 3 mps 743 mmHg 95%
02:00 +11°C° 0 mm 3 mps 743 mmHg 97%
03:00 +11°C° 0 mm 4 mps 742 mmHg 95%
04:00 +11°C° 0 mm 4 mps 742 mmHg 93%
05:00 +11°C° 0 mm 4 mps 742 mmHg 92%
06:00 +12°C° 0 mm 5 mps 742 mmHg 88%
07:00 +13°C° 0 mm 5 mps 742 mmHg 85%
08:00 +15°C° 0 mm 6 mps 742 mmHg 82%
09:00 +16°C° 0 mm 6 mps 742 mmHg 79%
10:00 +16°C° 0 mm 6 mps 742 mmHg 76%
11:00 +17°C° 0 mm 6 mps 742 mmHg 73%
12:00 +19°C° 0 mm 6 mps 742 mmHg 72%
13:00 +19°C° 0 mm 6 mps 742 mmHg 71%
14:00 +19°C° 0 mm 6 mps 741 mmHg 70%
15:00 +19°C° 0 mm 6 mps 741 mmHg 72%
16:00 +19°C° 0 mm 6 mps 741 mmHg 74%
17:00 +19°C° 0 mm 5 mps 740 mmHg 76%
18:00 +17°C° 0 mm 5 mps 740 mmHg 75%
19:00 +16°C° 0 mm 6 mps 740 mmHg 74%
20:00 +15°C° 0 mm 6 mps 740 mmHg 73%
21:00 +15°C° 0 mm 6 mps 739 mmHg 71%
22:00 +15°C° 0 mm 6 mps 739 mmHg 68%
23:00 +15°C° 0 mm 6 mps 739 mmHg 66%

Tomorrow, 15 July, Wednesday

Time Temperature Precipitation Wind Pressure Humidity
00:00 +14°C° 0.1 mm 5 mps 739 mmHg 70%
01:00 +13°C° 0.1 mm 5 mps 739 mmHg 74%
02:00 +13°C° 0.1 mm 5 mps 739 mmHg 78%
03:00 +12°C° 0.5 mm 5 mps 738 mmHg 83%
04:00 +11°C° 0.5 mm 6 mps 738 mmHg 87%
05:00 +10°C° 0.5 mm 6 mps 738 mmHg 92%
06:00 +10°C° 0.3 mm 6 mps 738 mmHg 90%
07:00 +11°C° 0.3 mm 7 mps 738 mmHg 88%
08:00 +11°C° 0.3 mm 7 mps 738 mmHg 86%
09:00 +11°C° 0.4 mm 7 mps 738 mmHg 87%
10:00 +11°C° 0.4 mm 7 mps 738 mmHg 87%
11:00 +11°C° 0.4 mm 7 mps 738 mmHg 87%
12:00 +10°C° 1.3 mm 7 mps 738 mmHg 89%
13:00 +10°C° 1.3 mm 7 mps 739 mmHg 90%
14:00 +10°C° 1.3 mm 7 mps 739 mmHg 92%
15:00 +10°C° 0.9 mm 7 mps 740 mmHg 92%
16:00 +10°C° 0.9 mm 6 mps 740 mmHg 92%
17:00 +10°C° 0.9 mm 6 mps 740 mmHg 92%
18:00 +10°C° 0 mm 5 mps 740 mmHg 92%
19:00 +11°C° 0 mm 4 mps 741 mmHg 91%
20:00 +11°C° 0 mm 4 mps 741 mmHg 91%
21:00 +11°C° 0 mm 3 mps 741 mmHg 91%
22:00 +11°C° 0 mm 3 mps 741 mmHg 91%
23:00 +11°C° 0 mm 3 mps 741 mmHg 91%

Day after tomorrow, 16 July, Thursday

Time Temperature Precipitation Wind Pressure Humidity
00:00 +10°C° 0 mm 3 mps 741 mmHg 92%
01:00 +10°C° 0 mm 3 mps 741 mmHg 92%
02:00 +10°C° 0 mm 3 mps 741 mmHg 93%
03:00 +10°C° 0 mm 3 mps 741 mmHg 93%
04:00 +10°C° 0 mm 4 mps 741 mmHg 93%
05:00 +10°C° 0 mm 4 mps 741 mmHg 93%
06:00 +12°C° 0 mm 4 mps 741 mmHg 89%
07:00 +14°C° 0 mm 4 mps 741 mmHg 86%
08:00 +15°C° 0 mm 4 mps 741 mmHg 82%
09:00 +17°C° 0 mm 4 mps 741 mmHg 78%
10:00 +19°C° 0 mm 4 mps 741 mmHg 73%
11:00 +20°C° 0 mm 4 mps 741 mmHg 69%
12:00 +20°C° 0 mm 4 mps 741 mmHg 68%
13:00 +21°C° 0 mm 4 mps 742 mmHg 67%
14:00 +21°C° 0 mm 4 mps 742 mmHg 66%
15:00 +21°C° 0 mm 4 mps 741 mmHg 68%
16:00 +21°C° 0 mm 4 mps 741 mmHg 70%
17:00 +21°C° 0 mm 3 mps 741 mmHg 73%
18:00 +19°C° 0 mm 3 mps 741 mmHg 76%
19:00 +18°C° 0 mm 2 mps 741 mmHg 80%
20:00 +16°C° 0 mm 2 mps 741 mmHg 84%
21:00 +15°C° 0 mm 1 mps 741 mmHg 84%
22:00 +15°C° 0 mm 1 mps 742 mmHg 84%
23:00 +14°C° 0 mm 1 mps 742 mmHg 84%

17 July, Friday

Time Temperature Precipitation Wind Pressure Humidity
00:00 +14°C° 0 mm 1 mps 742 mmHg 85%
01:00 +13°C° 0 mm 1 mps 742 mmHg 86%
02:00 +13°C° 0 mm 1 mps 742 mmHg 87%
03:00 +13°C° 0 mm 1 mps 742 mmHg 87%
04:00 +13°C° 0 mm 1 mps 742 mmHg 88%
05:00 +14°C° 0 mm 1 mps 742 mmHg 88%
06:00 +15°C° 0 mm 1 mps 742 mmHg 84%
07:00 +18°C° 0 mm 1 mps 742 mmHg 80%
08:00 +20°C° 0 mm 1 mps 743 mmHg 76%
09:00 +21°C° 0 mm 1 mps 743 mmHg 73%
10:00 +22°C° 0 mm 1 mps 743 mmHg 70%
11:00 +24°C° 0 mm 1 mps 743 mmHg 66%
12:00 +24°C° 0.2 mm 1 mps 743 mmHg 65%
13:00 +24°C° 0.2 mm 1 mps 743 mmHg 63%
14:00 +25°C° 0.2 mm 1 mps 743 mmHg 61%
15:00 +25°C° 0.3 mm 1 mps 743 mmHg 64%
16:00 +24°C° 0.3 mm 1 mps 743 mmHg 67%
17:00 +24°C° 0.3 mm 1 mps 743 mmHg 70%
18:00 +23°C° 0.1 mm 1 mps 743 mmHg 74%
19:00 +21°C° 0.1 mm 1 mps 743 mmHg 78%
20:00 +18°C° 0.1 mm 2 mps 743 mmHg 82%
21:00 +18°C° 0 mm 2 mps 744 mmHg 83%
22:00 +17°C° 0 mm 2 mps 744 mmHg 83%
23:00 +16°C° 0 mm 2 mps 744 mmHg 84%

18 July, Saturday

Time Temperature Precipitation Wind Pressure Humidity
00:00 +16°C° 0 mm 2 mps 744 mmHg 83%
01:00 +15°C° 0 mm 2 mps 744 mmHg 82%
02:00 +15°C° 0 mm 2 mps 744 mmHg 82%
03:00 +15°C° 0 mm 2 mps 745 mmHg 83%
04:00 +15°C° 0 mm 2 mps 745 mmHg 84%
05:00 +15°C° 0 mm 2 mps 745 mmHg 85%
06:00 +16°C° 0 mm 2 mps 745 mmHg 83%
07:00 +18°C° 0 mm 2 mps 746 mmHg 81%
08:00 +19°C° 0 mm 2 mps 746 mmHg 79%
09:00 +20°C° 0 mm 2 mps 746 mmHg 76%
10:00 +21°C° 0 mm 3 mps 746 mmHg 72%
11:00 +22°C° 0 mm 3 mps 746 mmHg 69%
12:00 +22°C° 0 mm 3 mps 746 mmHg 67%
13:00 +24°C° 0 mm 3 mps 746 mmHg 64%
14:00 +24°C° 0 mm 3 mps 746 mmHg 62%
15:00 +24°C° 0 mm 3 mps 746 mmHg 65%
16:00 +24°C° 0 mm 2 mps 746 mmHg 67%
17:00 +24°C° 0 mm 2 mps 746 mmHg 70%
18:00 +21°C° 0 mm 2 mps 746 mmHg 72%
19:00 +20°C° 0 mm 2 mps 746 mmHg 74%
20:00 +18°C° 0 mm 2 mps 746 mmHg 77%
21:00 +17°C° 0 mm 2 mps 746 mmHg 77%
22:00 +17°C° 0 mm 2 mps 747 mmHg 77%
23:00 +16°C° 0 mm 2 mps 747 mmHg 77%

19 July, Sunday

Time Temperature Precipitation Wind Pressure Humidity
00:00 +16°C° 0 mm 2 mps 747 mmHg 80%
01:00 +15°C° 0 mm 2 mps 747 mmHg 83%
02:00 +14°C° 0 mm 2 mps 747 mmHg 86%
03:00 +14°C° 0 mm 2 mps 747 mmHg 86%
04:00 +14°C° 0 mm 2 mps 747 mmHg 87%
05:00 +14°C° 0 mm 2 mps 747 mmHg 88%
06:00 +16°C° 0 mm 2 mps 747 mmHg 84%
07:00 +18°C° 0 mm 2 mps 747 mmHg 80%
08:00 +19°C° 0 mm 2 mps 747 mmHg 75%
09:00 +21°C° 0 mm 3 mps 747 mmHg 71%
10:00 +22°C° 0 mm 3 mps 747 mmHg 66%
11:00 +24°C° 0 mm 3 mps 747 mmHg 61%
12:00 +24°C° 0 mm 3 mps 746 mmHg 60%
13:00 +25°C° 0 mm 3 mps 746 mmHg 60%
14:00 +25°C° 0 mm 3 mps 746 mmHg 59%
15:00 +25°C° 0 mm 3 mps 745 mmHg 62%
16:00 +24°C° 0 mm 3 mps 745 mmHg 66%
17:00 +24°C° 0 mm 2 mps 745 mmHg 69%
18:00 +21°C° 0 mm 2 mps 745 mmHg 72%
19:00 +20°C° 0 mm 2 mps 745 mmHg 74%
20:00 +18°C° 0 mm 2 mps 744 mmHg 76%
21:00 +17°C° 0 mm 2 mps 744 mmHg 75%
22:00 +16°C° 0 mm 2 mps 744 mmHg 74%
23:00 +15°C° 0 mm 2 mps 744 mmHg 73%
Show more